[[{"header":{"parameterUnit":"m.s-1","parameterCategory":1,"la1":30.2991,"la2":30.254,"lo1":-89.0895,"lo2":-89.0444,"dy":0.0017,"dx":0.0017,"nx":28,"ny":28,"refTime":"2025-05-15T21:00:00:Z","depth":0,"parameterNumber":2,"parameterNumberName":"U-component_of_WINDS"},"data":[0,0,0,0,0,0,0,0,0,0,0,0,0,0,0,0,0,0,0,0,0,0,0,0,0,0,0,0,0,0,0,0,0,0,0,0,0,0,0,0,0,0,0,0,0,0,0,0,0,0,0,0,0,0,0,0,0,0,0.2396,0.2396,0,0.2406,0.2406,0.2406,0.2374,0.2373,0.2372,0.2371,0.2386,0.2387,0.2388,0,0,0,0,0,0,0,0,0,0,0,0,0,0.2355,0.2356,0.2396,0.2396,0.2397,0.2406,0.2406,0.2406,0.2374,0.2373,0.2372,0.2371,0.2385,0.2387,0.2388,0,0,0,0,0,0,0,0,0,0,0,0,0,0.237,0.2356,0.2396,0.2382,0.2381,0.2406,0.2406,0.2406,0.2375,0.2373,0.2372,0.237,0.2385,0.2387,0.2389,0.243,0,0,0.2395,0.2395,0,0,0,0,0,0,0,0,0.2369,0.2371,0.2384,0.2383,0.2381,0.2387,0.2396,0.2414,0.2375,0.2377,0.2371,0.237,0.2388,0.2389,0.2394,0.243,0.2431,0.2395,0.2396,0.2397,0.2397,0,0,0,0,0,0,0,0.2368,0.2371,0.24,0.2384,0.2383,0.2376,0.2376,0.24,0.2391,0.2377,0.2374,0.2376,0.2387,0.2393,0.2395,0.2431,0.2395,0.2396,0.2398,0.2398,0.2501,0.2502,0,0,0,0,0,0,0.2368,0.237,0.24,0.24,0.2371,0.2378,0.2378,0.2387,0.239,0.2389,0.2377,0.2374,0.239,0.2392,0.2395,0.2442,0.2397,0.2399,0.24,0.2499,0.2501,0.2503,0,0,0,0,0,0,0.2367,0.2371,0.2399,0.2384,0.2388,0.238,0.239,0.2388,0.2393,0.239,0.2389,0.2384,0.2389,0.2392,0.2421,0.2443,0.2399,0.2401,0.2497,0.25,0.2502,0.2538,0,0,0,0,0,0,0.2366,0.2371,0.2386,0.2385,0.2388,0.2424,0.2391,0.2389,0.2396,0.2393,0.2397,0.2396,0.2388,0.2418,0.2423,0.2444,0.2403,0.2495,0.2498,0.2501,0.2535,0.2542,0.2547,0,0,0,0,0,0.2365,0.2397,0.2387,0.239,0.2406,0.2425,0.2427,0.2416,0.2398,0.2413,0.2411,0.2396,0.2439,0.2421,0.2426,0.2449,0.2494,0.2497,0.2501,0.2532,0.254,0.2547,0,0,0,0,0,0,0.2402,0.2397,0.2385,0.2417,0.2422,0.242,0.2439,0.2425,0.2436,0.2432,0.242,0.2421,0.2452,0.2453,0.2433,0.2488,0.2464,0.2468,0.2486,0.2494,0.2499,0.2498,0.2404,0,0,0,0,0,0.2414,0.2428,0.2423,0.2452,0.2455,0.2446,0.2454,0.2445,0.245,0.2452,0.2452,0.2458,0.2473,0.2484,0.2497,0.2535,0.2536,0.2553,0.2559,0.2564,0.2569,0.2588,0.2596,0.2514,0.2514,0.2514,0,0,0.2439,0.2437,0.2448,0.246,0.2462,0.2478,0.2448,0.2467,0.2479,0.2455,0.2481,0.2482,0.2488,0.2521,0.2536,0.2524,0.2591,0.2569,0.2573,0.2574,0.2592,0.26,0.2607,0.2516,0.2516,0.2516,0,0,0.2492,0.2492,0.2516,0.2519,0.2522,0.2516,0.2522,0.2521,0.252,0.2546,0.2528,0.2543,0.2569,0.2574,0.258,0.2634,0.2621,0.2639,0.2671,0.269,0.2696,0.2702,0.2721,0.2728,0.2644,0.2644,0.2644,0,0.2523,0.2545,0.2531,0.255,0.2556,0.2533,0.2557,0.2561,0.2569,0.2575,0.256,0.2592,0.2595,0.2628,0.2641,0.2647,0.2653,0.2639,0.2696,0.2702,0.2707,0.2725,0.2732,0.2646,0.2646,0.2645,0.2645,0,0.2582,0.2598,0.2617,0.2623,0.2632,0.2654,0.2644,0.2654,0.2644,0.264,0.2666,0.2669,0.2682,0.2689,0.2681,0.2722,0.2714,0.2698,0.2673,0.2717,0.2734,0.274,0.2649,0.2648,0.2647,0.2647,0,0,0.2659,0.2656,0.2664,0.2666,0.2668,0.268,0.2701,0.2712,0.2721,0.2728,0.2746,0.2768,0.2753,0.276,0.2751,0.2768,0.281,0.2751,0.275,0.2761,0.2855,0.2866,0.2875,0.2801,0.2802,0.2804,0.2854,0,0.2711,0.2745,0.2732,0.2768,0.2782,0.2761,0.2779,0.2783,0.278,0.2792,0.2789,0.2805,0.2784,0.2788,0.2804,0.2802,0.2829,0.2798,0.2818,0.2819,0.2817,0.2883,0.2896,0.2943,0.2861,0.2862,0.2863,0,0.2776,0.2782,0.2819,0.2817,0.2823,0.2839,0.2848,0.286,0.2864,0.2861,0.2868,0.2855,0.2877,0.2852,0.2882,0.2861,0.2868,0.2869,0.287,0.2872,0.2843,0.2886,0.2959,0.2966,0.2873,0.2872,0.2871,0,0.2827,0.2846,0.287,0.2873,0.2871,0.2883,0.2884,0.2886,0.2893,0.2902,0.2906,0.2918,0.2924,0.2934,0.2926,0.2908,0.2957,0.2931,0.2955,0.2955,0.2966,0.2965,0.304,0.2972,0.2972,0.2972,0.2971,0,0.2886,0.2909,0.2893,0.2907,0.2933,0.2919,0.2944,0.2943,0.2945,0.2959,0.2942,0.2957,0.2945,0.2959,0.2953,0.2978,0.2981,0.298,0.2978,0.2981,0.2981,0.2986,0.2982,0.2973,0.2973,0.2973,0.2972,0,0.2947,0.2938,0.2962,0.2958,0.2958,0.2977,0.2974,0.2988,0.2983,0.3002,0.3006,0.2999,0.3014,0.3006,0.3023,0.3019,0.3051,0.3045,0.3049,0.3048,0.3072,0.3069,0.3152,0.3162,0.3087,0.3088,0.3089,0,0.2985,0.3002,0.2999,0.3007,0.3008,0.3021,0.3028,0.3015,0.3023,0.3028,0.3042,0.3055,0.3065,0.309,0.3088,0.31,0.3094,0.3122,0.3096,0.3098,0.3094,0.3093,0.3094,0.3127,0.3128,0.3129,0.3129,0,0.3052,0.3046,0.3056,0.3064,0.3072,0.3078,0.3083,0.3091,0.3078,0.3088,0.3103,0.311,0.3126,0.314,0.315,0.3152,0.3139,0.3138,0.3144,0.3147,0.3148,0.3147,0.3063,0.3136,0.3135,0.3135,0.3134,0.3134,0.3103,0.3116,0.3116,0.3128,0.313,0.3134,0.3147,0.3143,0.3154,0.3165,0.3157,0.3174,0.3177,0.319,0.3193,0.3207,0.3196,0.3205,0.3208,0.321,0.3213,0.3146,0.3209,0.3209,0.3209,0.3209,0.3209,0,0.3168,0.3167,0.3178,0.3184,0.3193,0.3178,0.3183,0.3192,0.3206,0.321,0.3219,0.3236,0.3249,0.3247,0.3259,0.327,0.3265,0.3274,0.3273,0.3273,0.3222,0.3215,0.3278,0.3278,0.3278,0.3278,0.3278,0.3278,0.3204,0.3226,0.322,0.3243,0.3242,0.3257,0.3261,0.3265,0.3268,0.3286,0.3296,0.3294,0.3296,0.3308,0.3319,0.3318,0.3324,0.3335,0.3332,0.3284,0.3277,0.3271,0.3264,0.3336,0.3336,0.3382,0.3382,0.3383]},{"header":{"parameterUnit":"m.s-1","parameterCategory":1,"la1":30.2991,"la2":30.254,"lo1":-89.0895,"lo2":-89.0444,"dy":0.0017,"dx":0.0017,"nx":28,"ny":28,"refTime":"2025-05-15T21:00:00:Z","depth":0,"parameterNumber":3,"parameterNumberName":"V-component_of_WINDS"},"data":[0,0,0,0,0,0,0,0,0,0,0,0,0,0,0,0,0,0,0,0,0,0,0,0,0,0,0,0,0,0,0,0,0,0,0,0,0,0,0,0,0,0,0,0,0,0,0,0,0,0,0,0,0,0,0,0,0,0,5.4464,5.4467,0,5.4688,5.469,5.4693,5.4712,5.471,5.4708,5.4705,5.4929,5.4937,5.4945,0,0,0,0,0,0,0,0,0,0,0,0,0,5.405,5.4058,5.4464,5.4467,5.447,5.4687,5.469,5.4693,5.4713,5.471,5.4707,5.4704,5.4927,5.4936,5.4946,0,0,0,0,0,0,0,0,0,0,0,0,0,5.4247,5.406,5.4463,5.4506,5.4512,5.4687,5.4691,5.4694,5.4713,5.471,5.4706,5.4703,5.4923,5.4935,5.4947,5.5094,0,0,5.4985,5.499,0,0,0,0,0,0,0,0,5.4236,5.4262,5.4497,5.4503,5.451,5.4669,5.4627,5.4828,5.4714,5.4637,5.4705,5.4701,5.4845,5.4864,5.4913,5.5105,5.5114,5.4986,5.4993,5.4999,5.5002,0,0,0,0,0,0,0,5.4222,5.4253,5.4552,5.45,5.4508,5.4512,5.4536,5.4665,5.4758,5.4643,5.4645,5.4672,5.4848,5.4901,5.4919,5.5118,5.4986,5.4996,5.5004,5.5009,5.5443,5.5447,0,0,0,0,0,0,5.4201,5.4241,5.4545,5.4559,5.4362,5.4522,5.4549,5.4621,5.4757,5.4774,5.4674,5.4672,5.4882,5.4904,5.4926,5.5109,5.4998,5.501,5.5017,5.5439,5.5444,5.5448,0,0,0,0,0,0,5.4192,5.4228,5.4536,5.4401,5.4441,5.4533,5.4614,5.4628,5.4681,5.478,5.4796,5.4712,5.488,5.4909,5.5053,5.5117,5.5016,5.5027,5.5434,5.544,5.5446,5.5474,0,0,0,0,0,0,5.418,5.4225,5.4283,5.4402,5.4448,5.4661,5.4618,5.4634,5.4703,5.4701,5.482,5.4836,5.488,5.5035,5.5065,5.5132,5.5036,5.5428,5.5437,5.5444,5.5468,5.5481,5.5492,0,0,0,0,0,5.4166,5.428,5.4285,5.4322,5.4522,5.4664,5.469,5.4739,5.4708,5.4766,5.483,5.4832,5.5105,5.5049,5.5084,5.5155,5.5425,5.5434,5.5443,5.5463,5.5478,5.5491,0,0,0,0,0,0,5.4163,5.4296,5.4304,5.4461,5.4551,5.4667,5.4742,5.4754,5.4854,5.4848,5.4903,5.493,5.5072,5.5128,5.5064,5.5305,5.5261,5.5278,5.5264,5.528,5.5291,5.5275,5.5046,0,0,0,0,0,5.4182,5.4287,5.4397,5.4525,5.457,5.4649,5.4712,5.4743,5.4838,5.4876,5.495,5.5041,5.5148,5.5217,5.532,5.5476,5.5503,5.5542,5.5554,5.5563,5.5577,5.5665,5.5685,5.5479,5.5479,5.5479,0,0,5.4219,5.4305,5.4368,5.4527,5.4601,5.4708,5.468,5.4795,5.4875,5.4893,5.5034,5.5092,5.5197,5.5349,5.5419,5.5399,5.564,5.5575,5.5581,5.5591,5.5677,5.5696,5.5714,5.5485,5.5484,5.5483,0,0,5.4344,5.4419,5.4535,5.461,5.4723,5.4774,5.4802,5.4917,5.4957,5.51,5.5116,5.5211,5.5393,5.5468,5.553,5.5685,5.5691,5.5716,5.5778,5.5864,5.588,5.5894,5.5951,5.597,5.573,5.573,5.573,0,5.4376,5.4541,5.4592,5.4708,5.4777,5.48,5.4918,5.4987,5.5127,5.5174,5.5151,5.5381,5.5453,5.5623,5.5661,5.571,5.5743,5.5704,5.5873,5.5889,5.5903,5.5958,5.5979,5.5732,5.5732,5.5732,5.5732,0,5.4576,5.4689,5.4769,5.4907,5.4985,5.51,5.5169,5.5242,5.5265,5.5319,5.5465,5.5553,5.5675,5.5717,5.574,5.5891,5.5876,5.5862,5.5819,5.5924,5.5977,5.5998,5.5736,5.5735,5.5734,5.5734,0,0,5.4705,5.4871,5.4899,5.4963,5.5089,5.5178,5.5294,5.5416,5.5478,5.5573,5.5673,5.5827,5.5816,5.5886,5.5918,5.5993,5.6112,5.597,5.5974,5.5995,5.6285,5.6295,5.6319,5.6116,5.612,5.6124,5.6277,0,5.4845,5.5055,5.5106,5.5285,5.5392,5.5415,5.5517,5.5605,5.5659,5.5755,5.5813,5.5923,5.5899,5.5942,5.6017,5.6081,5.6171,5.6071,5.6209,5.6213,5.6184,5.6346,5.6357,5.6497,5.6297,5.6301,5.6303,0,5.5036,5.5139,5.533,5.5445,5.5491,5.5582,5.5698,5.5791,5.5891,5.5925,5.6004,5.6029,5.6151,5.6101,5.627,5.6201,5.626,5.63,5.6307,5.6323,5.6265,5.6367,5.6543,5.6564,5.6336,5.6333,5.6331,0,5.5113,5.5299,5.5438,5.5491,5.5628,5.5691,5.5751,5.5848,5.5919,5.602,5.6066,5.6179,5.6241,5.6328,5.6382,5.6341,5.6547,5.6501,5.6578,5.6577,5.6622,5.6618,5.6811,5.6658,5.6657,5.6657,5.6656,0,5.5265,5.5381,5.5475,5.556,5.5691,5.5748,5.5875,5.5935,5.6022,5.6119,5.6145,5.6235,5.6301,5.64,5.6443,5.6577,5.6604,5.6634,5.6645,5.6633,5.663,5.6674,5.6666,5.6662,5.6661,5.666,5.6659,0,5.5373,5.5441,5.5594,5.5712,5.5744,5.5835,5.5936,5.6019,5.6074,5.6196,5.6228,5.6313,5.6432,5.6495,5.6641,5.667,5.6821,5.6825,5.6788,5.6793,5.6867,5.686,5.7096,5.713,5.6952,5.6954,5.6955,0,5.5466,5.5557,5.5685,5.5753,5.5815,5.5923,5.5996,5.6055,5.6129,5.6252,5.6321,5.6441,5.6541,5.6728,5.6802,5.6915,5.6923,5.6998,5.694,5.6926,5.6926,5.6921,5.6931,5.7008,5.701,5.7011,5.7012,0,5.5625,5.5654,5.5759,5.5876,5.5963,5.6058,5.6151,5.6205,5.6279,5.6361,5.6484,5.6561,5.6713,5.6832,5.6951,5.7011,5.7025,5.703,5.7054,5.7044,5.702,5.7035,5.6818,5.7024,5.7023,5.7022,5.7022,5.7021,5.573,5.5812,5.5916,5.6032,5.6109,5.6196,5.6281,5.6348,5.6451,5.6581,5.6609,5.6739,5.6838,5.7,5.7063,5.7165,5.715,5.7184,5.7193,5.7201,5.7206,5.7002,5.7187,5.7186,5.7186,5.7186,5.7186,0,5.5891,5.5959,5.6066,5.6197,5.6289,5.6295,5.6399,5.6475,5.6589,5.6682,5.678,5.6921,5.7037,5.7121,5.724,5.7305,5.7314,5.7334,5.7331,5.7345,5.7211,5.718,5.7325,5.7325,5.7325,5.7325,5.7325,5.7325,5.5985,5.6126,5.6167,5.6346,5.6413,5.6542,5.6602,5.6682,5.6757,5.6914,5.7012,5.7066,5.7156,5.7281,5.7388,5.7409,5.7452,5.7472,5.7494,5.7369,5.7354,5.734,5.731,5.7481,5.7481,5.7619,5.7621,5.7622]}]]